Showing default

VIGORIDE 3, 52760

Orbit data source: Space-Track

VIGORIDE 3, 52760 is a payload satellite owned by Momentus (US) in SSO that was launched on Wed, 25 May 2022 UTC via an FALCON 9 launch vehicle from the Air Force Eastern Test Range (AFETR). Payload-class satellites include a variety of spacecraft equipped with specific instruments for various scientific and technological missions. These include communications satellites like Starlink; space stations such as the ISS; scientific satellites like the Hubble; Earth observation satellites from companies like Planet Labs, Umbra, and HawkEye 360; GPS; miniature CubeSats for education and research; and military/defense satellites.

Loading next visibility...
Identifier
52760, 2022-057AE
Orbit
SSO
Country
Flag of USUS
Related business
Manufacturer
Momentus
Mission
Operational Commercial Technology
Bus & Motor
VIGORIDE, AOCS
Mass
412 kg wet, 292 kg dry
Launch date (UTC)
2022-05-25 (4 years ago)
Launch vehicle
FALCON 9
Launch site
Air Force Eastern Test Range (AFETR)
Object type
Payload
Rocket body
Debris
Shape & HBR
Box + 2 Pan, 3.3 m
Radar Cross Section
1.548 m², Large (>1 m²)

Expand to show TLE details & history
Last TLE update: 2 days ago

TLE from 2 days ago
0 VIGORIDE 3
1 52760U 22057AE  26171.42702770  .00004548  00000-0  17276-3 0  9999
2 52760  97.6612 311.4869 0009702 110.5914 249.6366 15.27308098225653
Epoch: 2026-06-20T10:14Z
TLE epoch observation values (Epoch: 2026-06-20T10:14:55.193Z)
Latitude
-0.00001°
Longitude
-110.88488°
Altitude
489.279 km
Speed
7.619 km/s
True Right ascension
20h 45m 56s
True Declination
0° 00' 00"
Sunlit
Object was in full shadow at epoch
Visualization orbit readout
Latitude
Unknown
Longitude
Unknown
Altitude
Unknown
Speed
Unknown
Apparent Right ascension
Unknown
Apparent Declination
Unknown
Sunlit
N/A
Visualization observer readout
Local Sidereal Time
21:55:36
Azimuth
Unknown
Elevation
Unknown
Doppler factor
Unknown
Orbital elements
Apogee altitude
487.485 km
Perigee altitude
474.176 km
Semi-major axis
6,858.968 km
Eccentricity
0.00097
Inclination
97.6612°
RAAN
311.4869°
Arg. of periapsis
110.5914°
True anomaly
249.53242°
Mean anomaly
249.6366°
Eccentric anomaly
249.5845°
Mean motion
3.82081 °/min
Orbital period
94.22 mins
BSTAR
0.00017276
Loading maneuver chart data...
Computing Atmospheric mass density...
Loading historical data...
Loading historical data...
Loading historical data...
Loading historical data...
Loading historical data...
Loading historical data...
Loading historical data...

Documentation

Showing up to 5 results
|